TimeEDT,TemperatureF,Dew PointF,Humidity,Sea Level PressureIn,VisibilityMPH,Wind Direction,Wind SpeedMPH,Gust SpeedMPH,PrecipitationIn,Events,Conditions,WindDirDegrees,DateUTC
12:51 AM,46.9,41.0,80,29.71,10.0,Calm,Calm,-,0.00,Rain,Light Rain,0,2011-10-18 04:51:00
1:51 AM,46.9,42.1,83,29.70,10.0,Calm,Calm,-,0.00,,Overcast,0,2011-10-18 05:51:00
2:51 AM,48.9,41.0,74,29.70,10.0,West,3.5,-,0.00,,Overcast,260,2011-10-18 06:51:00
3:51 AM,48.0,41.0,77,29.71,10.0,Variable,5.8,-,0.00,Rain,Light Rain,0,2011-10-18 07:51:00
4:51 AM,46.0,44.1,93,29.74,8.0,Calm,Calm,-,0.02,Rain,Light Rain,0,2011-10-18 08:51:00
5:51 AM,46.0,44.1,93,29.76,10.0,Calm,Calm,-,0.02,Rain,Light Rain,0,2011-10-18 09:51:00
6:20 AM,46.4,42.8,87,29.75,10.0,SW,3.5,-,0.00,,Overcast,230,2011-10-18 10:20:00
6:51 AM,46.9,43.0,86,29.78,10.0,SSW,4.6,-,0.00,,Overcast,210,2011-10-18 10:51:00
7:19 AM,46.4,44.6,93,29.76,10.0,WSW,3.5,-,N/A,,Overcast,250,2011-10-18 11:19:00
7:51 AM,46.9,43.0,86,29.80,10.0,West,3.5,-,N/A,,Overcast,260,2011-10-18 11:51:00
8:51 AM,46.4,42.8,87,29.80,10.0,Calm,Calm,-,N/A,,Scattered Clouds,0,2011-10-18 12:51:00
9:51 AM,50.0,39.9,68,29.83,10.0,Variable,5.8,-,N/A,,Clear,0,2011-10-18 13:51:00
10:51 AM,51.1,39.0,63,29.84,10.0,SSW,6.9,-,N/A,,Overcast,210,2011-10-18 14:51:00
11:51 AM,53.1,39.0,59,29.85,10.0,Variable,6.9,-,N/A,,Overcast,0,2011-10-18 15:51:00
12:51 PM,53.1,37.9,57,29.85,10.0,Calm,Calm,-,N/A,,Overcast,0,2011-10-18 16:51:00
1:51 PM,55.9,39.0,53,29.84,10.0,SW,12.7,19.6,N/A,,Overcast,230,2011-10-18 17:51:00
2:51 PM,55.0,37.9,53,29.86,10.0,SSW,8.1,-,N/A,,Overcast,210,2011-10-18 18:51:00
3:51 PM,55.0,39.0,55,29.87,10.0,SW,4.6,-,N/A,,Overcast,220,2011-10-18 19:51:00
4:51 PM,54.0,39.9,59,29.88,10.0,SSW,5.8,-,N/A,,Overcast,210,2011-10-18 20:51:00
5:51 PM,53.1,39.0,59,29.91,10.0,SW,3.5,-,N/A,,Overcast,220,2011-10-18 21:51:00
6:51 PM,48.9,41.0,74,29.94,10.0,South,5.8,-,N/A,,Scattered Clouds,180,2011-10-18 22:51:00
7:51 PM,51.1,39.9,66,29.95,10.0,South,6.9,-,N/A,,Scattered Clouds,180,2011-10-18 23:51:00
8:51 PM,52.0,39.0,61,29.95,10.0,South,5.8,-,N/A,,Overcast,190,2011-10-19 00:51:00
9:51 PM,48.0,39.9,74,29.98,10.0,Calm,Calm,-,N/A,,Mostly Cloudy,0,2011-10-19 01:51:00
10:51 PM,48.0,42.1,80,29.99,10.0,Calm,Calm,-,N/A,,Overcast,0,2011-10-19 02:51:00
11:51 PM,48.0,42.1,80,29.99,10.0,Calm,Calm,-,N/A,,Overcast,0,2011-10-19 03:51:00